TimeEDT,TemperatureF,Dew PointF,Humidity,Sea Level PressureIn,VisibilityMPH,Wind Direction,Wind SpeedMPH,Gust SpeedMPH,PrecipitationIn,Events,Conditions,WindDirDegrees,DateUTC
12:54 AM,28.9,16.0,58,29.82,10.0,NW,9.2,-,0.00,,Overcast,320,2013-04-02 04:54:00
1:25 AM,28.4,15.8,59,29.80,8.0,West,6.9,-,0.00,Snow,Light Snow,280,2013-04-02 05:25:00
1:33 AM,26.6,15.8,64,29.80,10.0,WSW,3.5,-,0.00,,Scattered Clouds,240,2013-04-02 05:33:00
1:54 AM,28.0,9.0,45,29.82,10.0,West,10.4,20.7,0.00,,Partly Cloudy,260,2013-04-02 05:54:00
3:54 AM,27.0,5.0,39,29.81,10.0,WSW,8.1,-,N/A,,Clear,250,2013-04-02 07:54:00
4:54 AM,26.1,5.0,41,29.82,10.0,Variable,6.9,-,N/A,,Clear,0,2013-04-02 08:54:00
5:54 AM,25.0,5.0,43,29.83,10.0,SW,3.5,-,N/A,,Clear,230,2013-04-02 09:54:00
6:54 AM,25.0,7.0,46,29.84,10.0,WSW,5.8,-,N/A,,Clear,240,2013-04-02 10:54:00
7:54 AM,27.0,8.1,45,29.85,10.0,West,16.1,23.0,N/A,,Clear,260,2013-04-02 11:54:00
8:54 AM,27.0,6.1,41,29.87,10.0,West,10.4,25.3,N/A,,Mostly Cloudy,260,2013-04-02 12:54:00
9:54 AM,28.9,5.0,36,29.86,10.0,West,19.6,26.5,N/A,,Overcast,280,2013-04-02 13:54:00
10:54 AM,30.0,7.0,38,29.86,10.0,West,21.9,27.6,N/A,,Mostly Cloudy,270,2013-04-02 14:54:00
11:54 AM,30.9,10.9,43,29.85,10.0,WSW,11.5,21.9,N/A,,Mostly Cloudy,250,2013-04-02 15:54:00
12:44 PM,28.4,15.8,59,29.82,1.8,WNW,12.7,28.8,0.00,Snow,Light Snow,290,2013-04-02 16:44:00
12:54 PM,28.0,19.0,69,29.85,1.0,West,10.4,19.6,0.00,Snow,Light Snow,270,2013-04-02 16:54:00
1:04 PM,28.4,17.6,64,29.81,3.0,WSW,11.5,21.9,0.00,Snow,Light Snow,240,2013-04-02 17:04:00
1:17 PM,32.0,14.0,48,29.81,9.0,West,18.4,29.9,0.00,,Mostly Cloudy,260,2013-04-02 17:17:00
1:54 PM,32.0,12.9,45,29.83,10.0,West,10.4,24.2,0.00,,Overcast,260,2013-04-02 17:54:00
2:54 PM,32.0,18.0,56,29.83,3.0,WSW,13.8,27.6,0.00,Snow,Light Snow,240,2013-04-02 18:54:00
3:54 PM,33.1,7.0,34,29.81,10.0,West,20.7,33.4,0.00,,Mostly Cloudy,280,2013-04-02 19:54:00
4:54 PM,32.0,10.0,40,29.83,10.0,NW,8.1,34.5,N/A,,Overcast,310,2013-04-02 20:54:00
5:54 PM,33.1,9.0,37,29.86,10.0,West,19.6,26.5,N/A,,Overcast,260,2013-04-02 21:54:00
6:54 PM,30.9,8.1,38,29.88,10.0,WSW,6.9,-,N/A,,Mostly Cloudy,240,2013-04-02 22:54:00
7:54 PM,30.9,8.1,38,29.90,10.0,West,8.1,18.4,N/A,,Mostly Cloudy,280,2013-04-02 23:54:00
8:54 PM,30.0,7.0,38,29.92,10.0,West,13.8,23.0,N/A,,Partly Cloudy,270,2013-04-03 00:54:00
9:54 PM,30.0,9.0,41,29.92,10.0,West,11.5,19.6,N/A,,Mostly Cloudy,270,2013-04-03 01:54:00
10:54 PM,30.0,12.0,47,29.92,10.0,West,10.4,23.0,N/A,,Overcast,260,2013-04-03 02:54:00
11:54 PM,28.0,15.1,58,29.92,9.0,West,8.1,-,0.00,,Overcast,280,2013-04-03 03:54:00